DAL2720 KJAX-KATL

Flight info

Callsign DAL2720
Flight time 0h 45m
Altitude 30000
Route BRSTL1 BAXLY LAIRI LARZZ JJEDI3
Aircraft A320/M-SDE3FGHIRWY/LB1

Departure

Time 2026-05-03 21:35
Airport Jacksonville International Airport (KJAX)

Arrival

Time 2026-05-03 22:20
Airport Hartsfield Jackson Atlanta International Airport (KATL)
Time Latitude Longitude Altitude Speed Heading
2026-05-03 21:14 30.49283 -81.68616 35 ft 0 kts 104°
2026-05-03 21:24 30.49284 -81.68617 35 ft 1 kts 104°
2026-05-03 21:24 30.49290 -81.68644 34 ft 4 kts 109°
2026-05-03 21:25 30.49300 -81.68673 33 ft 4 kts 108°
2026-05-03 21:25 30.49304 -81.68698 35 ft 4 kts 49°
2026-05-03 21:25 30.49304 -81.68700 33 ft 1 kts 355°
2026-05-03 21:25 30.49301 -81.68700 33 ft 0 kts 355°
2026-05-03 21:27 30.49303 -81.68700 33 ft 2 kts 355°
2026-05-03 21:28 30.49335 -81.68704 35 ft 8 kts 355°
2026-05-03 21:28 30.49410 -81.68708 35 ft 14 kts
2026-05-03 21:28 30.49488 -81.68621 35 ft 18 kts 51°
2026-05-03 21:28 30.49574 -81.68515 35 ft 17 kts 22°
2026-05-03 21:29 30.49695 -81.68487 35 ft 19 kts 11°
2026-05-03 21:29 30.49827 -81.68457 35 ft 20 kts 10°
2026-05-03 21:29 30.49893 -81.68448 35 ft 11 kts 349°
2026-05-03 21:29 30.49891 -81.68546 35 ft 9 kts 249°
2026-05-03 21:30 30.49877 -81.68592 34 ft 9 kts 250°
2026-05-03 21:30 30.49854 -81.68666 35 ft 12 kts 250°
2026-05-03 21:30 30.49820 -81.68780 35 ft 18 kts 250°
2026-05-03 21:30 30.49774 -81.68932 36 ft 20 kts 250°
2026-05-03 21:31 30.49728 -81.69081 36 ft 19 kts 250°
2026-05-03 21:31 30.49685 -81.69217 36 ft 17 kts 250°
2026-05-03 21:31 30.49646 -81.69343 36 ft 16 kts 250°
2026-05-03 21:31 30.49610 -81.69460 36 ft 15 kts 250°
2026-05-03 21:32 30.49577 -81.69568 35 ft 14 kts 250°
2026-05-03 21:32 30.49546 -81.69669 35 ft 13 kts 250°
2026-05-03 21:32 30.49517 -81.69763 35 ft 12 kts 250°
2026-05-03 21:32 30.49490 -81.69852 35 ft 11 kts 250°
2026-05-03 21:33 30.49498 -81.69930 32 ft 10 kts 324°
2026-05-03 21:33 30.49515 -81.69938 35 ft 0 kts 339°
2026-05-03 21:33 30.49518 -81.69939 35 ft 3 kts 339°
2026-05-03 21:34 30.49571 -81.69962 35 ft 13 kts 340°
2026-05-03 21:34 30.49648 -81.69916 35 ft 16 kts 69°
2026-05-03 21:34 30.49689 -81.69783 36 ft 27 kts 70°
2026-05-03 21:34 30.49859 -81.69229 38 ft 116 kts 70°
2026-05-03 21:35 30.50202 -81.68110 254 ft 164 kts 70°
2026-05-03 21:35 30.50600 -81.66813 1000 ft 177 kts 71°
2026-05-03 21:35 30.51188 -81.65566 2022 ft 185 kts 46°
2026-05-03 21:35 30.52272 -81.64602 2730 ft 206 kts 34°
2026-05-03 21:36 30.53532 -81.63687 3342 ft 221 kts 32°
2026-05-03 21:36 30.54910 -81.62774 3942 ft 238 kts 22°
2026-05-03 21:36 30.56616 -81.62561 4479 ft 260 kts 348°
2026-05-03 21:36 30.58258 -81.63489 5317 ft 267 kts 323°
2026-05-03 21:37 30.59743 -81.64795 6348 ft 267 kts 320°
2026-05-03 21:37 30.61221 -81.66118 7306 ft 269 kts 321°
2026-05-03 21:37 30.62708 -81.67454 8203 ft 272 kts 320°
2026-05-03 21:37 30.64219 -81.68809 9090 ft 276 kts 320°
2026-05-03 21:38 30.65749 -81.70175 9998 ft 279 kts 319°
2026-05-03 21:38 30.67330 -81.71588 10482 ft 297 kts 319°
2026-05-03 21:38 30.68998 -81.73080 11090 ft 307 kts 319°
2026-05-03 21:38 30.70705 -81.74602 11877 ft 311 kts 319°
2026-05-03 21:39 30.72435 -81.76138 12685 ft 314 kts 318°
2026-05-03 21:39 30.74181 -81.77687 13482 ft 318 kts 318°
2026-05-03 21:39 30.75946 -81.79255 14242 ft 321 kts 317°
2026-05-03 21:39 30.77730 -81.80846 14824 ft 326 kts 317°
2026-05-03 21:40 30.79534 -81.82457 15008 ft 327 kts 317°
2026-05-03 21:40 30.81334 -81.84061 15062 ft 327 kts 317°
2026-05-03 21:40 30.83141 -81.85669 15032 ft 326 kts 317°
2026-05-03 21:40 30.84944 -81.87278 15033 ft 326 kts 317°
2026-05-03 21:41 30.86748 -81.88882 15035 ft 327 kts 319°
2026-05-03 21:41 30.88660 -81.90287 15036 ft 330 kts 323°
2026-05-03 21:41 30.90651 -81.91683 15035 ft 330 kts 323°
2026-05-03 21:41 30.92593 -81.93044 15035 ft 330 kts 323°
2026-05-03 21:42 30.94558 -81.94423 15024 ft 330 kts 323°
2026-05-03 21:42 30.96523 -81.95807 15052 ft 330 kts 323°
2026-05-03 21:42 30.98517 -81.97137 15051 ft 333 kts 329°
2026-05-03 21:42 31.00687 -81.98191 15057 ft 335 kts 332°
2026-05-03 21:43 31.02841 -81.99208 15052 ft 334 kts 332°
2026-05-03 21:43 31.04975 -82.00222 15053 ft 335 kts 332°
2026-05-03 21:43 31.07128 -82.01248 15021 ft 334 kts 332°
2026-05-03 21:43 31.09280 -82.02277 15021 ft 334 kts 332°
2026-05-03 21:44 31.11429 -82.03305 15025 ft 334 kts 332°
2026-05-03 21:44 31.13642 -82.04371 15029 ft 357 kts 332°
2026-05-03 21:44 31.16016 -82.05523 15025 ft 382 kts 332°
2026-05-03 21:44 31.18542 -82.06744 15020 ft 404 kts 333°
2026-05-03 21:45 31.21182 -82.08007 15018 ft 414 kts 333°
2026-05-03 21:45 31.23860 -82.09276 15030 ft 418 kts 333°
2026-05-03 21:45 31.26528 -82.10661 15515 ft 419 kts 328°
2026-05-03 21:45 31.29116 -82.12234 16056 ft 421 kts 327°
2026-05-03 21:46 31.31707 -82.13858 16562 ft 423 kts 327°
2026-05-03 21:46 31.34297 -82.15515 17037 ft 426 kts 326°
2026-05-03 21:46 31.36906 -82.17197 17507 ft 429 kts 326°
2026-05-03 21:46 31.39533 -82.18890 17955 ft 432 kts 326°
2026-05-03 21:47 31.42182 -82.20589 18404 ft 435 kts 327°
2026-05-03 21:47 31.44860 -82.22296 18782 ft 438 kts 326°
2026-05-03 21:47 31.47551 -82.24004 19139 ft 441 kts 326°
2026-05-03 21:47 31.50258 -82.25723 19500 ft 443 kts 326°
2026-05-03 21:48 31.52973 -82.27447 19836 ft 445 kts 326°
2026-05-03 21:48 31.55703 -82.29179 20168 ft 448 kts 326°
2026-05-03 21:48 31.58447 -82.30922 20498 ft 450 kts 326°
2026-05-03 21:48 31.61203 -82.32682 20814 ft 452 kts 326°
2026-05-03 21:49 31.63969 -82.34452 21129 ft 454 kts 326°
2026-05-03 21:49 31.66751 -82.36229 21433 ft 456 kts 326°
2026-05-03 21:49 31.69548 -82.38015 21728 ft 458 kts 326°
2026-05-03 21:49 31.72350 -82.39808 22020 ft 460 kts 326°
2026-05-03 21:50 31.75131 -82.41582 22859 ft 447 kts 325°
2026-05-03 21:50 31.77773 -82.43257 24020 ft 426 kts 324°
2026-05-03 21:50 31.80290 -82.44839 24600 ft 402 kts 324°
2026-05-03 21:50 31.82720 -82.46384 25026 ft 395 kts 323°
2026-05-03 21:51 31.85166 -82.47966 25127 ft 408 kts 323°
2026-05-03 21:51 31.87695 -82.49620 25130 ft 421 kts 323°
2026-05-03 21:51 31.90297 -82.51323 25125 ft 434 kts 323°
2026-05-03 21:51 31.92973 -82.53067 25119 ft 444 kts 324°
2026-05-03 21:52 31.95690 -82.54872 25118 ft 450 kts 321°
2026-05-03 21:52 31.98183 -82.57092 25122 ft 450 kts 313°
2026-05-03 21:52 32.00577 -82.59507 25119 ft 456 kts 313°
2026-05-03 21:52 32.02996 -82.61962 25119 ft 460 kts 313°
2026-05-03 21:53 32.05418 -82.64433 25120 ft 461 kts 313°
2026-05-03 21:53 32.07844 -82.66912 25120 ft 462 kts 313°
2026-05-03 21:53 32.10264 -82.69393 25119 ft 462 kts 313°
2026-05-03 21:53 32.12692 -82.71883 24926 ft 462 kts 313°
2026-05-03 21:54 32.15116 -82.74364 24714 ft 462 kts 313°
2026-05-03 21:54 32.17548 -82.76845 24483 ft 462 kts 313°
2026-05-03 21:54 32.19985 -82.79333 24262 ft 464 kts 314°
2026-05-03 21:54 32.22426 -82.81827 24035 ft 465 kts 314°
2026-05-03 21:55 32.24877 -82.84330 23947 ft 464 kts 314°
2026-05-03 21:55 32.27320 -82.86831 24087 ft 464 kts 314°
2026-05-03 21:55 32.29761 -82.89337 24121 ft 465 kts 313°
2026-05-03 21:55 32.32201 -82.91848 24141 ft 465 kts 313°
2026-05-03 21:56 32.34634 -82.94360 24125 ft 465 kts 313°
2026-05-03 21:56 32.37072 -82.96882 24127 ft 465 kts 313°
2026-05-03 21:56 32.39513 -82.99404 24034 ft 466 kts 313°
2026-05-03 21:56 32.41956 -83.01922 23806 ft 466 kts 314°
2026-05-03 21:57 32.44404 -83.04441 23587 ft 466 kts 314°
2026-05-03 21:57 32.46857 -83.06961 23315 ft 467 kts 314°
2026-05-03 21:57 32.49311 -83.09480 23046 ft 466 kts 314°
2026-05-03 21:57 32.51756 -83.11994 22774 ft 464 kts 314°
2026-05-03 21:58 32.54187 -83.14495 22512 ft 463 kts 314°
2026-05-03 21:58 32.56561 -83.16937 22254 ft 452 kts 315°
2026-05-03 21:58 32.58887 -83.19330 21992 ft 432 kts 315°
2026-05-03 21:58 32.61110 -83.21618 21728 ft 408 kts 314°
2026-05-03 21:59 32.63177 -83.23749 21471 ft 381 kts 314°
2026-05-03 21:59 32.65133 -83.25778 21217 ft 369 kts 314°
2026-05-03 21:59 32.67041 -83.27774 20965 ft 365 kts 314°
2026-05-03 21:59 32.68959 -83.29785 20710 ft 365 kts 314°
2026-05-03 22:00 32.70851 -83.31771 20470 ft 363 kts 314°
2026-05-03 22:00 32.72747 -83.33757 20234 ft 362 kts 314°
2026-05-03 22:00 32.74633 -83.35729 19989 ft 361 kts 314°
2026-05-03 22:00 32.76510 -83.37688 19614 ft 356 kts 314°
2026-05-03 22:01 32.78390 -83.39650 18269 ft 365 kts 315°
2026-05-03 22:01 32.80299 -83.41645 17333 ft 360 kts 315°
2026-05-03 22:01 32.82133 -83.43553 17069 ft 346 kts 315°
2026-05-03 22:01 32.83942 -83.45434 16814 ft 345 kts 315°
2026-05-03 22:02 32.85746 -83.47313 16562 ft 344 kts 315°
2026-05-03 22:02 32.87544 -83.49187 16311 ft 343 kts 315°
2026-05-03 22:02 32.89336 -83.51059 16061 ft 342 kts 315°
2026-05-03 22:02 32.91095 -83.52898 15815 ft 340 kts 315°
2026-05-03 22:03 32.92889 -83.54783 15567 ft 339 kts 315°
2026-05-03 22:03 32.94658 -83.56644 15326 ft 339 kts 316°
2026-05-03 22:03 32.96399 -83.58470 15086 ft 337 kts 316°
2026-05-03 22:03 32.98155 -83.60308 14846 ft 335 kts 316°
2026-05-03 22:04 32.99900 -83.62140 14629 ft 334 kts 316°
2026-05-03 22:04 33.01638 -83.63963 14393 ft 333 kts 316°
2026-05-03 22:04 33.03373 -83.65782 14159 ft 331 kts 316°
2026-05-03 22:04 33.05083 -83.67572 13920 ft 323 kts 316°
2026-05-03 22:05 33.06755 -83.69322 13660 ft 318 kts 316°
2026-05-03 22:05 33.08411 -83.71063 13392 ft 316 kts 316°
2026-05-03 22:05 33.10042 -83.72780 13128 ft 309 kts 316°
2026-05-03 22:05 33.11633 -83.74453 12970 ft 299 kts 316°
2026-05-03 22:06 33.13175 -83.76074 12788 ft 291 kts 316°
2026-05-03 22:06 33.14684 -83.77659 12482 ft 287 kts 316°
2026-05-03 22:06 33.16177 -83.79235 12130 ft 286 kts 316°
2026-05-03 22:06 33.17660 -83.80802 11769 ft 284 kts 317°
2026-05-03 22:07 33.19134 -83.82364 11422 ft 282 kts 316°
2026-05-03 22:07 33.20555 -83.83964 11069 ft 280 kts 314°
2026-05-03 22:07 33.21935 -83.85603 10701 ft 279 kts 314°
2026-05-03 22:07 33.23295 -83.87253 10347 ft 278 kts 313°
2026-05-03 22:08 33.24647 -83.88895 10004 ft 276 kts 314°
2026-05-03 22:08 33.25992 -83.90521 9626 ft 274 kts 314°
2026-05-03 22:08 33.27336 -83.92136 9224 ft 273 kts 314°
2026-05-03 22:08 33.28674 -83.93737 8830 ft 271 kts 314°
2026-05-03 22:09 33.30004 -83.95326 8430 ft 270 kts 314°
2026-05-03 22:09 33.31333 -83.96918 8033 ft 269 kts 315°
2026-05-03 22:09 33.32204 -83.97963 7777 ft 268 kts 315°
2026-05-03 22:10 33.35068 -84.00577 7341 ft 241 kts 328°
2026-05-03 22:10 33.36433 -84.01585 7287 ft 221 kts 328°
2026-05-03 22:10 33.38108 -84.02832 7232 ft 214 kts 327°
2026-05-03 22:10 33.38942 -84.03452 7194 ft 205 kts 327°
2026-05-03 22:11 33.40134 -84.04339 7155 ft 200 kts 328°
2026-05-03 22:11 33.41313 -84.05216 7111 ft 199 kts 327°
2026-05-03 22:11 33.42490 -84.06088 7074 ft 199 kts 328°
2026-05-03 22:11 33.43660 -84.06952 6864 ft 201 kts 328°
2026-05-03 22:12 33.44867 -84.07846 6586 ft 201 kts 328°
2026-05-03 22:12 33.46043 -84.08715 6329 ft 196 kts 328°
2026-05-03 22:12 33.47199 -84.09569 6087 ft 194 kts 328°
2026-05-03 22:12 33.48348 -84.10418 5852 ft 194 kts 328°
2026-05-03 22:13 33.49495 -84.11266 5626 ft 194 kts 328°
2026-05-03 22:13 33.50644 -84.12118 5400 ft 195 kts 327°
2026-05-03 22:13 33.51792 -84.12968 5170 ft 194 kts 327°
2026-05-03 22:13 33.52922 -84.13808 4945 ft 193 kts 326°
2026-05-03 22:14 33.54077 -84.14665 4712 ft 190 kts 326°
2026-05-03 22:14 33.55171 -84.15477 4490 ft 187 kts 327°
2026-05-03 22:14 33.56282 -84.16303 4253 ft 184 kts 326°
2026-05-03 22:14 33.57370 -84.17110 4023 ft 183 kts 326°
2026-05-03 22:15 33.58441 -84.17903 3816 ft 182 kts 326°
2026-05-03 22:15 33.59534 -84.18715 3584 ft 182 kts 326°
2026-05-03 22:15 33.60513 -84.19663 3492 ft 181 kts 305°
2026-05-03 22:15 33.61131 -84.20959 3397 ft 179 kts 296°
2026-05-03 22:16 33.61656 -84.22287 3290 ft 178 kts 294°
2026-05-03 22:16 33.62179 -84.23638 3191 ft 180 kts 294°
2026-05-03 22:16 33.62695 -84.24979 3098 ft 169 kts 294°
2026-05-03 22:16 33.63130 -84.26204 3019 ft 151 kts 282°
2026-05-03 22:17 33.63157 -84.27406 3040 ft 141 kts 272°
2026-05-03 22:17 33.63166 -84.28576 3033 ft 139 kts 272°
2026-05-03 22:17 33.63171 -84.29724 2951 ft 137 kts 272°
2026-05-03 22:17 33.63174 -84.30871 2805 ft 137 kts 272°
2026-05-03 22:18 33.63176 -84.32019 2639 ft 140 kts 271°
2026-05-03 22:18 33.63178 -84.33191 2454 ft 140 kts 272°
2026-05-03 22:18 33.63179 -84.34357 2285 ft 142 kts 271°
2026-05-03 22:18 33.63179 -84.35524 2095 ft 137 kts 271°
2026-05-03 22:19 33.63180 -84.36687 1915 ft 140 kts 272°
2026-05-03 22:19 33.63181 -84.37876 1688 ft 142 kts 270°
2026-05-03 22:19 33.63181 -84.39070 1519 ft 144 kts 272°
2026-05-03 22:19 33.63180 -84.40268 1297 ft 142 kts 272°
2026-05-03 22:20 33.63183 -84.41438 1108 ft 139 kts 271°
2026-05-03 22:20 33.63185 -84.42577 1006 ft 125 kts 271°
2026-05-03 22:20 33.63183 -84.43408 1007 ft 74 kts 269°
2026-05-03 22:20 33.63184 -84.43829 1005 ft 36 kts 270°
2026-05-03 22:21 33.63201 -84.44066 1005 ft 27 kts 285°
2026-05-03 22:21 33.63257 -84.44221 1006 ft 17 kts 302°
2026-05-03 22:21 33.63346 -84.44240 1006 ft 12 kts 35°
2026-05-03 22:21 33.63353 -84.44234 1006 ft 0 kts 37°
2026-05-03 22:24 33.63367 -84.44221 1006 ft 6 kts 37°
2026-05-03 22:24 33.63420 -84.44193 1006 ft 12 kts
2026-05-03 22:25 33.63519 -84.44194 1007 ft 16 kts 359°
2026-05-03 22:25 33.63581 -84.44117 1007 ft 15 kts 92°
2026-05-03 22:25 33.63582 -84.44015 1007 ft 11 kts 91°
2026-05-03 22:25 33.63581 -84.43928 1007 ft 10 kts 91°
2026-05-03 22:26 33.63582 -84.43847 1007 ft 9 kts 88°
2026-05-03 22:26 33.63599 -84.43771 1006 ft 12 kts 47°
2026-05-03 22:26 33.63664 -84.43707 1006 ft 15 kts 84°
2026-05-03 22:26 33.63664 -84.43570 1006 ft 16 kts 90°
2026-05-03 22:27 33.63664 -84.43439 1006 ft 15 kts 90°
2026-05-03 22:27 33.63664 -84.43319 1006 ft 14 kts 90°
2026-05-03 22:27 33.63665 -84.43209 1006 ft 12 kts 89°
2026-05-03 22:27 33.63667 -84.43111 1006 ft 11 kts 79°
2026-05-03 22:28 33.63720 -84.43064 1006 ft 9 kts
2026-05-03 22:28 33.63781 -84.43064 1006 ft 8 kts 359°
2026-05-03 22:28 33.63818 -84.43038 1006 ft 6 kts 68°
2026-05-03 22:28 33.63821 -84.42998 1006 ft 1 kts 88°
2026-05-03 22:29 33.63822 -84.42996 1006 ft 0 kts 88°
2026-05-03 22:30 33.64151 -84.42879 1006 ft 0 kts 283°